Weather History for KESN - May, 2012

Change the Weather History Date:

Friday, May 25, 2012

  Actual Average Record
Temperature  
Mean Temperature 76 °F -  
Max Temperature 84 °F 75 °F 89 °F (1964)
Min Temperature 68 °F 56 °F 37 °F (1956)
Cooling Degree Days 11    
Growing Degree Days 26 (Base 50)    
Moisture  
Dew Point 69 °F    
Average Humidity 92    
Maximum Humidity 100    
Minimum Humidity 58    
Precipitation  
Precipitation 0.00 in - - ()
Sea Level Pressure  
Sea Level Pressure 30.16 in    
Wind  
Wind Speed 5 mph (SSE)    
Max Wind Speed 14 mph    
Max Gust Speed -    
Visibility 8 miles    
Events      
Averages and records for this station are not official NWS values.
T = Trace of Precipitation, MM = Missing Value Source: NWS Daily Summary

Daily Weather History Graph

Daily Weather History Graph

Search for Another Location

Airport or City:

Trip Planner

Search our weather history database for the weather conditions in past years. The results will help you decide how hot, cold, wet, or windy it might be!

Date:

Astronomy

May. 25, 2012 Rise Set
Actual Time 5:44 AM EDT 8:18 PM EDT
Civil Twilight 5:13 AM EDT 8:49 PM EDT
Nautical Twilight 4:35 AM EDT 9:28 PM EDT
Astronomical Twilight 3:52 AM EDT 10:11 PM EDT
Moon 9:40 AM EDT (5/25) 11:54 PM EDT (5/25)
Length of Visible Light 15h 36m
Length of Day
14h 34m
Waxing Crescent, 19% of the Moon is Illuminated
May 25
Waxing Crescent
May 28
First Quarter
Jun 4
Full
Jun 11
Last Quarter
Jun 19
New

Hourly Weather History & Observations

Time (EDT) Temp. Heat Index Dew Point Humidity Pressure Visibility Wind Dir Wind Speed Gust Speed Precip Events Conditions
12:09 AM 68.0 °F - 68.0 °F 100% 30.14 in 10.0 mi East 4.6 mph - N/A   Clear
12:30 AM 68.0 °F - 68.0 °F 100% 30.13 in 10.0 mi East 5.8 mph - N/A   Mostly Cloudy
12:54 AM 68.0 °F - 68.0 °F 100% 30.13 in 10.0 mi ESE 6.9 mph - N/A   Scattered Clouds
1:15 AM 68.0 °F - 68.0 °F 100% 30.13 in 10.0 mi ESE 4.6 mph - N/A   Scattered Clouds
1:36 AM 68.0 °F - 68.0 °F 100% 30.13 in 10.0 mi SE 4.6 mph - N/A   Scattered Clouds
1:57 AM 68.0 °F - 68.0 °F 100% 30.13 in 10.0 mi SE 4.6 mph - N/A   Mostly Cloudy
2:18 AM 68.0 °F - 68.0 °F 100% 30.13 in 7.0 mi SE 8.1 mph - N/A   Overcast
2:39 AM 68.0 °F - 68.0 °F 100% 30.13 in 10.0 mi ESE 3.5 mph - N/A   Overcast
3:00 AM 68.0 °F - 68.0 °F 100% 30.14 in 10.0 mi East 3.5 mph - N/A   Overcast
3:21 AM 68.0 °F - 68.0 °F 100% 30.15 in 10.0 mi ESE 3.5 mph - N/A   Overcast
3:42 AM 68.0 °F - 68.0 °F 100% 30.15 in 10.0 mi Calm Calm - N/A   Overcast
4:03 AM 68.0 °F - 68.0 °F 100% 30.15 in 10.0 mi SE 5.8 mph - N/A   Overcast
4:27 AM 68.0 °F - 68.0 °F 100% 30.15 in 10.0 mi SE 4.6 mph - N/A   Overcast
4:48 AM 68.0 °F - 68.0 °F 100% 30.15 in 7.0 mi South 9.2 mph - N/A   Overcast
5:09 AM 68.0 °F - 68.0 °F 100% 30.15 in 7.0 mi SSW 3.5 mph - N/A   Overcast
5:30 AM 68.0 °F - 68.0 °F 100% 30.16 in 7.0 mi South 3.5 mph - N/A   Overcast
5:50 AM 68.0 °F - 68.0 °F 100% 30.17 in 4.0 mi SSW 3.5 mph - N/A   Overcast
5:51 AM 68.0 °F - 68.0 °F 100% 30.17 in 7.0 mi South 3.5 mph - N/A   Overcast
6:12 AM 68.0 °F - 68.0 °F 100% 30.18 in 5.0 mi South 4.6 mph - N/A   Overcast
6:54 AM 68.0 °F - 68.0 °F 100% 30.18 in 4.0 mi Calm Calm - N/A   Overcast
7:55 AM 69.8 °F - 69.8 °F 100% 30.18 in 3.0 mi Calm Calm - N/A   Overcast
8:55 AM 71.6 °F - 71.6 °F 100% 30.18 in 4.0 mi Calm Calm - N/A   Overcast
9:50 AM 73.4 °F - 71.6 °F 94% 30.18 in 7.0 mi Calm Calm - N/A   Overcast
10:55 AM 75.2 °F - 71.6 °F 89% 30.19 in 7.0 mi Calm Calm - N/A   Overcast
11:50 AM 78.8 °F - 71.6 °F 78% 30.19 in 7.0 mi Calm Calm - N/A   Overcast
12:47 PM 80.6 °F 84.6 °F 71.6 °F 74% 30.19 in 10.0 mi ESE 5.8 mph - N/A   Mostly Cloudy
2:50 PM 84.2 °F 88.4 °F 69.8 °F 62% 30.15 in 10.0 mi South 5.8 mph - N/A   Scattered Clouds
3:50 PM 84.2 °F 87.3 °F 68.0 °F 58% 30.14 in 10.0 mi SSW 5.8 mph - N/A   Scattered Clouds
4:50 PM 82.4 °F 87.2 °F 71.6 °F 70% 30.15 in 10.0 mi South 13.8 mph - N/A   Scattered Clouds
5:50 PM 80.6 °F 83.2 °F 68.0 °F 65% 30.15 in 10.0 mi SW 6.9 mph - N/A   Scattered Clouds
6:50 PM 80.6 °F 84.6 °F 71.6 °F 74% 30.15 in 10.0 mi South 6.9 mph - N/A   Scattered Clouds
7:50 PM 78.8 °F - 71.6 °F 78% 30.16 in 10.0 mi South 8.1 mph - N/A   Scattered Clouds
8:50 PM 75.2 °F - 71.6 °F 89% 30.16 in 10.0 mi SW 5.8 mph - N/A   Scattered Clouds
10:30 PM 71.6 °F - 69.8 °F 94% 30.16 in 10.0 mi South 5.8 mph - N/A   Clear
10:51 PM 71.6 °F - 69.8 °F 94% 30.16 in 10.0 mi South 4.6 mph - N/A   Clear
11:15 PM 69.8 °F - 69.8 °F 100% 30.16 in 10.0 mi South 4.6 mph - N/A   Clear
11:36 PM 69.8 °F - 69.8 °F 100% 30.16 in 10.0 mi South 4.6 mph - N/A   Clear